Regional Weather Roundup
Issued by NWS Jackson, KY

Home | Current Version | Previous Version | Graphics & Text | Print | Product List | Glossary On
Versions: 1 2 3 4 5 6 7 8 9 10 11 12 13 14 15 16 17 18 19 20 21 22 23 24 25 26 27 28 29 30 31 32 33 34 35 36 37 38 39 40 41 42 43 44 45 46 47 48 49 50
000
ASUS43 KJKL 200219
RWRJKL

EAST KENTUCKY HOURLY WEATHER ROUNDUP
NATIONAL WEATHER SERVICE JACKSON KY
900 PM EST FRI DEC 19 2014

NOTE: "FAIR" INDICATES FEW OR NO CLOUDS BELOW 12,000 FEET WITH
NO SIGNIFICANT WEATHER AND/OR OBSTRUCTIONS TO VISIBILITY.

* THESE REPORTS ARE NOT UNDER NWS QUALITY CONTROL AND MAY NOT
  REPORT WEATHER SUCH AS PRECIPITATION AND FOG.

KYZ079-080-083-085-087-088-110-112-115-119-120-200300
...EASTERN KENTUCKY...

CITY           SKY/WX    TMP DP  RH WIND       PRES   REMARKS
JACKSON        PTCLDY    29  21  72 VRB6      30.22F WCI  23
LONDON         MOCLDY    32  23  69 NE5       30.22F WCI  27
SOMERSET*      CLEAR     30  23  74 NE6       30.24F WCI  24
MONTICELLO*    PTCLDY    30  25  82 CALM      30.26S
MIDDLESBORO*   CLOUDY    34  28  79 CALM      30.21F
HARLAN APT*    MOCLDY    34  27  75 NE3       30.18F
HAZARD APT*    CLEAR     30  25  80 CALM      30.22F
BLACK MTN*       N/A     28  23  80 CALM        N/A
PIKEVILLE APT* CLEAR     27  23  86 N6        30.23S WCI  20
BIG SANDY*     PTCLDY    26  23  86 NE6       30.25F WCI  20
MOREHEAD APT*  CLOUDY    27  21  80 NE5       30.28F WCI  21
ASHLAND*       CLOUDY    30  19  64 NE3       30.29S
$$

KYZ035-036-041-042-044-050-067-078-099-200300
...CENTRAL KENTUCKY...

CITY           SKY/WX    TMP DP  RH WIND       PRES   REMARKS
MT STERLING*   CLEAR     27  23  86 NE6       30.28F WCI  20
FLEMING/MASON* MOCLDY    27  21  80 NE3       30.29F
DANVILLE*      PTCLDY    28  23  80 NE5       30.26S WCI  23
RICHMOND*      PTCLDY    27  21  80 NE5       30.25S WCI  21
LEXINGTON      CLEAR     24  20  84 NE7       30.27S WCI  16
FRANKFORT      CLEAR     27  20  75 NE5       30.27S WCI  22
$$

KYZ091>093-OHZ055-061-077-WVZ005-015-034-035-042-200300
...SOUTHERN OHIO/WEST VIRGINIA...

CITY           SKY/WX    TMP DP  RH WIND       PRES   REMARKS
COVINGTON      CLOUDY    30  20  66 CALM      30.28F
COLUMBUS       CLOUDY    30  22  72 N5        30.28F WCI  25
DAYTON         CLOUDY    30  22  72 SW3       30.29R
WILMINGTON     CLOUDY    29  21  72 E6        30.27F WCI  23
HUNTINGTON     CLOUDY    29  22  75 NE5       30.28S WCI  24
CHARLESTON     CLOUDY    30  21  69 CALM      30.29R
PINEVILLE*     PTCLDY    28  28  98 MISG      30.25F
BECKLEY        CLOUDY    25  20  81 N6        30.19R WCI  18
BLUEFIELD      MOCLDY    29  22  75 NW5       30.16S WCI  24
$$

VAZ002-007-008-TNZ017-027-036-066-071-200300
...SOUTHWEST VIRGINIA/EAST TENNESSEE...

CITY           SKY/WX    TMP DP  RH WIND       PRES   REMARKS
WISE*          MOCLDY    32  27  80 N3        30.17F
JONESVILLE*    MOCLDY    32  28  86 CALM      30.20F
ABINGDON*      MOCLDY    33  27  77 CALM      30.17S
BRISTOL        MOCLDY    33  26  75 N3        30.19S
KNOXVILLE      CLOUDY    39  27  62 N8        30.16F WCI  33
OAK RIDGE      CLOUDY    40  27  59 VRB5      30.19F
CROSSVILLE     CLOUDY    35  26  69 N8        30.16F WCI  29
NASHVILLE      CLOUDY    38  28  67 NE9       30.24F WCI  31
$$

...KEY TO REMARKS...
VSB - VISIBILITY IN MILES
WCI - WIND CHILL INDEX
HX  - HEAT INDEX

$$



USA.gov is the U.S. government's official web portal to all federal, state and local government web resources and services.